Location: Chinatown
(37.7966°N, 122.4086°W)
Time: 22:18:17
(UTC+00:00)

ISS - Visible Passes

Search period start: 16 January 2026 00:00
Search period end: 26 January 2026 00:00
Orbit: 413 x 424 km, 51.6° (Epoch: 16 January)

Date Brightness Start Highest point End Pass type
(mag) Time Alt. Az. Time Alt. Az. Time Alt. Az.
16 Jan -1.3 02:57:06 10° NW 02:58:50 13° NNW 02:59:18 13° N visible
17 Jan -1.5 02:08:30 10° WNW 02:10:52 18° NNW 02:13:14 10° NNE visible
19 Jan -1.1 02:11:45 10° NNW 02:12:34 11° NNW 02:13:23 10° N visible
24 Jan -1.1 03:04:04 10° NNW 03:04:25 11° N 03:04:25 11° N visible
25 Jan -1.4 02:16:49 10° N 02:17:42 11° NNE 02:18:35 10° NNE visible
